Temp
20 20 19 19 19 19 19 19 19 19 19 18 18 17 17 17 17 17 17 17 17 17 17 17 17 17 17 17 17 17 17 17 17 17 18 18 18 19 19 19 19 19
20 20 19 19 19 19 19 19 19 19 18 18 18 17 17 17 17 17 17 17 17 17 17 17 17 17 17 17 17 17 17 17 17 17 18 18 18 19 19 19 19 19
19 19 19 19 19 19 19 19 19 18 18 18 17 17 17 17 17 17 17 17 17 17 17 17 17 17 17 17 17 17 17 17 17 17 18 18 18 18 19 19 19 19
19 19 19 19 19 19 19 19 18 18 18 17 17 17 17 17 17 17 17 17 17 17 17 17 17 17 17 17 17 17 17 17 17 17 18 18 18 18 18 18 18 18
19 19 19 19 19 19 19 18 18 18 18 17 17 17 17 17 17 17 17 17 17 17 17 17 17 17 17 17 17 17 17 17 17 17 17 17 18 18 18 18 18 18
19 19 19 19 19 18 18 18 18 18 17 17 17 17 17 17 17 17 16 17 17 17 17 17 17 17 17 17 17 17 17 17 17 17 17 17 17 18 18 18 18 18
19 19 18 18 18 18 18 17 17 17 17 17 17 17 17 17 17 17 17 17 17 17 17 17 17 17 17 17 17 17 17 17 17 17 17 17 17 17 18 18 18 18
18 18 18 18 18 18 17 17 17 17 17 17 17 17 17 17 17 17 17 17 17 17 17 17 17 17 17 17 17 17 17 17 17 17 17 17 17 17 17 17 18 18
18 18 18 18 17 17 17 17 17 17 17 17 17 17 17 17 17 17 17 17 17 17 17 17 17 17 17 17 17 17 17 17 17 17 17 17 17 17 17 18 18 18
18 18 18 17 17 17 17 17 16 17 17 17 17 17 17 17 17 17 17 17 17 17 17 17 17 17 17 17 17 17 18 18 18 18 18 18 18 17 17 18 18 18
18 17 17 17 17 17 17 17 17 17 17 17 17 17 17 17 18 18 18 18 17 17 17 17 17 17 17 17 17 17 18 18 18 18 18 18 18 18 17 17 17 17
18 17 17 17 17 17 17 17 18 17 17 17 17 17 17 17 18 18 18 18 18 18 17 17 17 17 17 17 17 17 17 17 18 18 18 18 18 18 18 17 17 17
17 17 17 17 17 17 17 17 17 18 18 18 17 18 17 18 18 18 18 18 18 18 17 17 17 17 17 17 17 17 17 17 17 18 18 18 18 18 17 17 17 17
17 17 17 17 17 17 17 17 17 17 17 17 17 17 18 18 18 18 18 18 18 18 18 17 17 17 17 17 17 17 17 17 17 17 17 17 17 17 17 17 17 17
17 17 17 17 17 17 17 17 17 17 17 17 17 17 18 18 18 18 18 18 18 18 18 17 17 17 17 17 17 17 17 17 17 17 17 17 17 17 17 17 17 17
16 16 16 16 17 17 17 17 17 17 17 17 17 17 18 18 18 18 18 18 18 18 18 18 18 17 17 17 17 17 17 17 17 17 17 17 17 17 17 17 17 17
16 16 16 16 16 16 16 16 16 17 17 17 17 17 17 17 18 18 18 18 18 18 18 18 18 18 17 17 17 17 17 17 17 17 17 17 17 17 17 17 17 17
16 16 16 16 16 16 16 16 16 16 16 16 17 17 17 17 17 17 18 18 17 18 18 18 18 18 18 18 17 17 17 17 17 17 17 17 17 17 17 16 16 16
16 16 16 16 16 16 16 16 16 16 16 16 16 16 17 17 17 17 17 17 17 17 17 17 17 17 18 18 18 17 17 17 17 17 17 17 16 17 16 16 16 16
15 15 15 15 15 15 15 15 16 16 16 16 16 16 16 16 16 16 16 16 17 17 17 17 17 17 17 17 17 17 17 17 17 16 16 16 16 16 16 16 16 16
14 15 15 15 15 15 15 15 15 15 15 15 16 16 16 16 16 16 16 16 16 16 16 16 16 16 16 17 17 17 16 16 16 16 16 16 15 15 15 14 14 15
14 14 14 15 15 15 15 15 15 15 15 15 15 15 15 16 16 15 15 16 16 15 15 15 15 16 16 16 16 16 16 16 15 15 15 15 15 14 14 13 13 14
13 13 14 14 14 14 14 14 14 15 15 15 15 15 15 15 15 15 15 15 15 15 15 15 15 15 15 16 16 16 16 15 15 15 15 15 14 14 14 13 13 14
12 12 12 13 13 13 13 13 14 14 14 14 14 15 15 15 15 15 15 15 15 15 15 15 15 15 15 15 15 15 15 15 15 14 14 14 13 13 13 14 13 13
11 11 11 12 12 12 12 13 13 13 13 14 14 14 14 15 15 15 15 15 15 15 15 15 14 14 14 15 15 15 15 14 14 13 13 12 13 13 13 13 13 13
10 10 10 10 10 11 11 11 12 12 12 13 13 13 13 14 14 14 14 14 15 15 15 15 14 14 14 14 14 14 14 14 14 13 13 12 12 12 12 12 12 12
Height
817 819 820 822 824 825 826 826 827 827 828 828 829 830 831 833 834 834 835 835 836 837 838 839 840 840 841 842 842 843 843 844 845 845 846 846 847 848 849 850 850 851
818 819 821 822 824 825 826 826 827 827 828 828 829 830 831 833 834 835 836 836 837 838 840 840 841 842 842 843 843 844 844 845 845 846 846 847 848 849 849 850 851 851
819 820 821 822 823 824 825 826 826 827 828 829 830 831 832 833 834 835 837 837 838 840 841 841 842 843 843 844 845 845 845 846 846 846 847 847 848 849 850 850 851 852
819 820 821 822 823 824 825 826 826 827 828 829 830 831 833 834 835 836 837 838 839 841 842 843 843 844 845 845 846 846 846 847 847 847 847 848 849 849 850 851 851 852
820 820 821 822 823 824 825 826 827 827 828 829 831 832 833 835 836 837 838 839 840 841 842 843 844 845 846 846 847 847 847 848 848 848 849 849 850 851 851 852 853 853
820 821 821 823 823 825 826 827 828 828 829 830 831 833 834 835 837 838 839 840 841 842 843 844 845 846 847 847 848 848 848 849 849 850 850 851 852 852 853 854 854 854
820 821 822 823 824 825 826 827 829 829 830 831 832 834 835 836 838 838 840 841 842 843 843 845 846 846 847 848 848 849 849 850 850 851 851 852 852 853 854 855 855 855
820 821 822 823 824 825 827 828 829 830 831 831 833 834 836 837 838 839 841 842 842 843 844 845 846 847 848 848 849 849 850 850 851 851 852 852 853 854 854 855 855 855
820 821 822 823 824 826 827 828 829 830 831 832 833 835 836 838 839 840 841 842 843 844 845 846 846 847 848 848 849 849 850 850 851 852 852 852 853 853 854 854 855 855
819 820 822 823 825 826 827 828 829 830 831 833 834 835 836 838 839 840 841 842 843 844 845 846 846 847 848 848 848 849 849 850 851 851 852 852 852 853 853 854 854 855
819 820 822 824 825 827 828 829 829 830 832 833 834 835 836 838 839 840 841 842 843 844 845 845 846 847 847 848 848 849 849 849 850 851 851 852 852 853 853 854 854 855
818 820 821 823 825 826 827 828 829 831 832 833 834 835 836 837 838 840 840 841 842 843 844 845 846 846 847 847 848 848 849 849 850 851 851 852 852 852 853 854 854 854
818 820 821 823 825 826 827 828 829 830 831 832 833 834 835 837 837 839 840 841 842 842 843 844 845 846 846 847 848 848 848 849 849 850 851 851 852 852 853 853 853 854
817 819 821 823 825 826 827 828 829 830 831 832 833 833 835 835 836 838 839 840 841 842 842 843 844 845 846 846 847 847 848 848 849 850 850 851 851 852 852 853 853 853
818 819 821 823 824 825 827 828 829 830 830 831 832 833 833 834 835 836 837 838 840 841 842 842 843 844 844 845 845 846 846 847 848 849 849 850 850 851 851 851 851 852
818 820 822 823 824 825 827 828 829 830 830 831 832 832 832 833 834 835 836 837 838 839 840 840 841 842 842 843 843 844 845 846 846 847 847 847 848 848 849 849 850 850
820 821 823 824 825 826 827 828 829 829 829 830 830 831 832 832 833 834 835 836 837 838 839 839 839 840 840 841 841 842 843 844 844 845 845 845 846 846 847 847 848 849
822 823 824 825 825 826 827 828 828 829 829 829 830 830 831 832 832 833 834 835 836 837 837 837 838 838 838 839 839 840 841 841 842 843 844 844 844 845 845 846 846 847
824 824 825 825 825 826 827 827 828 828 829 829 829 830 830 831 832 832 833 834 835 835 836 835 836 837 837 837 837 838 838 838 839 841 842 843 843 843 844 844 844 845
825 825 826 826 826 826 826 826 827 827 828 828 829 830 830 830 831 832 832 833 834 834 834 834 834 835 835 836 836 836 836 837 837 838 839 840 841 841 842 842 842 843
824 824 825 825 826 826 826 826 827 827 827 828 828 829 829 829 830 831 831 832 833 833 833 833 833 834 834 835 835 835 835 835 835 836 836 837 838 839 840 841 841 842
825 825 825 824 824 825 824 825 826 826 827 828 828 828 829 828 829 829 830 830 831 832 832 831 831 832 832 833 833 834 834 834 834 834 834 834 835 837 839 840 841 842
828 828 827 826 826 825 825 825 826 826 827 827 827 827 828 828 828 827 828 829 829 830 830 829 829 830 830 831 831 832 832 832 832 832 832 833 834 834 836 836 837 838
832 831 830 830 829 829 828 827 827 827 826 826 826 826 826 826 826 826 826 826 826 827 827 827 827 827 828 828 828 829 829 829 830 830 830 831 831 832 832 833 834 835
833 833 832 831 831 831 830 829 828 828 827 826 826 826 825 825 825 825 824 824 824 824 824 824 824 824 825 826 826 826 826 826 827 827 827 828 829 830 830 831 832 833
834 833 833 832 832 831 831 831 830 829 828 827 826 826 825 824 824 824 823 823 823 822 822 821 821 821 822 822 823 823 823 823 824 824 824 825 825 826 827 828 829 830
Wind_Speed
19 18 17 16 15 14 13 13 10 11 12 13 15 15 13 12 12 12 12 11 10 10 11 10 9 12 14 15 14 15 16 16 16 15 15 15 14 14 15 15 15 15
18 17 17 16 15 13 13 12 10 12 15 16 16 15 13 11 11 11 11 12 12 11 10 10 11 15 17 17 17 18 18 17 16 15 15 16 16 16 16 16 16 15
17 17 17 16 15 14 13 12 11 14 16 16 14 13 10 9 9 10 11 12 12 10 10 11 14 17 18 17 16 16 17 17 16 16 17 17 15 15 15 15 14 14
17 17 17 16 15 14 13 13 13 15 15 14 13 12 11 10 10 11 12 12 11 10 11 12 13 15 16 15 15 16 17 16 16 16 17 16 14 14 15 14 13 13
17 17 17 17 16 15 14 13 14 14 14 13 13 13 13 12 12 12 12 12 12 11 12 12 12 14 15 14 15 17 17 17 16 17 17 16 16 15 15 14 13 12
17 17 18 18 17 16 14 14 14 13 13 13 13 13 12 12 12 12 12 13 12 12 13 13 12 13 13 13 15 17 17 17 17 17 17 18 17 15 15 15 15 15
17 17 17 17 16 16 15 14 13 13 13 13 13 13 13 13 12 12 13 13 12 13 14 13 12 12 13 14 16 16 16 17 18 18 19 19 17 16 17 17 16 16
17 16 16 15 15 15 14 14 14 13 13 13 13 14 13 12 12 12 12 12 13 14 13 13 13 13 14 15 16 17 17 17 18 18 18 18 17 16 15 15 15 16
17 15 14 14 15 15 14 14 14 13 13 13 14 15 13 12 12 11 12 13 13 13 13 14 14 13 14 16 15 15 16 17 17 17 16 17 17 16 14 13 13 14
18 15 14 14 15 14 12 12 12 13 14 13 13 14 13 12 11 10 12 14 14 13 14 14 13 12 15 16 13 12 16 19 18 16 15 15 16 15 13 11 10 11
18 16 15 15 15 12 10 9 9 11 13 12 12 14 12 11 11 9 11 14 13 13 14 14 12 12 14 15 12 12 16 20 18 16 14 13 14 13 11 10 8 8
17 17 17 15 14 12 10 8 8 10 11 11 11 11 9 9 12 10 10 12 13 14 15 14 12 12 13 15 13 11 14 16 16 15 13 11 12 12 11 9 8 7
15 15 16 15 13 13 11 10 9 9 10 11 11 9 9 10 11 11 11 11 12 13 14 14 13 12 12 14 13 12 13 14 15 15 11 10 12 12 10 10 10 9
13 13 15 15 13 11 10 11 11 11 9 10 10 9 11 13 11 11 12 12 12 13 12 12 13 13 13 14 13 13 13 13 14 14 12 12 12 12 12 12 11 12
11 11 11 11 11 10 9 9 12 12 11 12 11 9 12 15 13 11 13 13 12 13 13 13 13 13 14 15 14 15 15 14 14 15 14 13 13 13 14 15 14 14
10 9 8 9 10 10 9 8 9 11 10 11 10 7 9 15 14 12 13 13 13 13 14 16 15 14 15 16 15 15 16 16 15 16 17 16 17 17 16 17 17 16
9 8 7 9 9 8 7 6 6 8 7 7 8 5 4 9 11 11 11 11 11 12 13 16 18 17 17 17 16 16 17 18 18 19 19 19 20 20 19 19 19 17
6 6 4 5 7 6 4 3 4 5 5 6 8 7 6 6 7 8 9 9 10 11 11 11 15 19 20 20 18 18 19 21 21 22 22 21 21 21 21 20 20 19
9 8 7 5 3 3 2 2 3 4 4 5 7 9 10 11 10 10 10 10 11 12 12 12 13 15 19 21 21 22 23 24 24 24 24 24 24 23 23 22 22 21
19 15 13 11 9 5 2 1 1 3 4 6 7 9 11 12 13 13 13 12 11 10 11 13 13 12 16 19 20 22 23 24 25 25 25 26 26 27 26 24 24 24
22 21 18 16 14 13 10 7 6 6 5 5 7 8 9 10 11 13 14 15 14 13 12 13 13 12 14 17 20 21 21 22 25 26 26 26 26 25 24 22 21 22
20 21 20 18 17 16 14 12 11 11 10 9 7 7 9 10 11 12 13 14 16 16 17 17 17 16 16 17 20 21 20 21 24 26 27 27 25 24 23 22 21 20
16 18 19 18 17 17 16 15 14 12 12 12 11 12 11 12 13 14 14 14 15 16 18 20 21 20 21 21 21 22 23 23 24 27 28 28 26 25 24 24 24 23
13 13 14 13 13 14 15 15 15 14 14 14 14 15 15 15 16 17 17 17 17 17 18 20 21 21 22 23 23 24 25 25 26 28 29 28 27 26 25 23 23 22
11 11 11 11 12 13 13 14 15 16 16 16 16 17 18 18 18 19 20 19 19 20 20 19 20 20 20 21 22 23 24 25 26 29 29 28 27 28 27 24 22 23
12 12 12 12 13 14 14 15 15 16 17 18 19 19 19 20 20 21 22 20 19 19 19 19 20 20 20 20 21 21 22 24 26 29 30 29 29 30 28 24 23 25
Wind_Direction
150 148 150 151 152 154 152 149 153 161 158 149 138 130 129 132 130 126 119 117 122 126 125 117 117 131 132 133 137 133 134 136 137 139 135 129 125 123 125 124 124 124
150 150 151 149 146 145 144 146 150 153 150 144 140 135 133 135 135 134 129 125 125 131 132 121 123 133 130 128 132 131 133 135 136 139 133 125 122 119 121 120 117 118
155 155 156 152 148 142 142 147 148 145 143 140 141 140 138 141 142 141 140 138 134 133 133 121 121 132 133 134 138 139 140 140 138 141 135 126 122 118 122 125 120 118
162 162 160 156 152 148 148 146 142 142 142 138 137 137 136 138 140 142 143 143 140 136 135 127 124 133 136 136 138 138 139 139 138 138 132 125 123 121 122 125 124 121
165 163 161 159 157 156 153 146 142 143 142 139 138 140 142 142 142 142 141 143 145 142 141 137 135 140 142 141 139 136 135 135 135 135 129 122 121 124 126 128 128 125
164 162 163 164 164 162 157 149 148 149 145 144 145 147 149 146 145 146 146 149 152 148 145 143 144 148 150 149 144 141 141 142 142 141 134 126 124 126 130 131 126 120
166 166 167 167 167 167 162 156 156 155 153 151 149 150 150 148 150 151 151 154 156 153 149 147 149 152 152 151 148 148 150 150 148 144 137 132 127 128 131 129 124 121
172 171 171 170 169 169 166 164 163 159 157 155 152 152 152 155 158 156 156 157 154 155 155 153 154 155 155 154 152 153 153 151 149 145 141 139 135 134 137 133 125 121
174 175 175 170 168 169 169 169 166 160 156 154 155 157 160 165 165 165 167 162 158 159 159 157 158 159 160 159 157 161 162 156 152 149 146 142 136 134 139 142 135 126
169 170 170 164 163 166 170 173 172 167 160 157 163 164 165 169 171 177 179 170 164 163 160 160 162 158 161 162 153 154 161 156 151 149 146 143 141 136 139 149 147 143
165 165 164 161 163 168 172 174 175 174 167 164 166 167 170 177 176 181 186 178 170 166 164 164 162 159 163 164 149 138 151 155 153 150 145 149 155 151 151 156 152 149
157 162 165 164 167 172 173 168 168 176 174 167 163 169 184 188 180 182 185 179 175 172 171 168 163 163 166 164 158 149 151 155 155 153 152 159 167 165 163 164 158 154
155 160 166 168 170 173 176 175 170 172 174 171 171 184 199 189 184 192 190 184 183 178 176 175 170 169 168 166 168 165 160 160 160 162 165 165 163 165 164 162 165 173
156 160 165 166 165 164 170 179 180 178 181 189 198 214 213 196 190 200 199 196 196 189 187 189 183 180 181 178 175 171 168 170 172 174 175 170 167 170 172 169 176 185
150 155 163 173 177 174 171 176 183 186 196 210 222 238 224 204 195 201 203 203 204 202 200 203 202 198 195 194 191 185 181 181 185 186 183 184 188 188 183 183 189 193
146 150 157 169 176 179 181 182 187 191 202 216 225 238 219 203 197 201 207 209 208 210 211 211 214 210 204 204 205 201 194 191 192 193 193 197 199 196 194 195 197 201
148 154 161 164 166 170 178 188 193 196 206 217 219 226 211 199 199 203 212 217 214 218 222 220 219 216 212 211 211 207 201 199 200 200 202 207 205 203 204 203 202 205
137 135 134 151 165 167 167 188 203 204 218 229 230 240 246 238 229 219 222 235 237 238 243 238 227 219 215 214 212 209 207 208 209 207 208 213 213 212 214 212 208 208
75 81 75 78 111 148 162 200 231 240 246 248 247 253 256 259 262 251 238 239 246 251 256 257 249 232 220 215 211 211 213 214 214 214 216 220 221 222 223 219 215 214
50 53 52 50 52 51 62 144 282 295 277 256 252 261 265 265 268 265 256 246 245 251 251 249 252 245 232 223 215 213 215 215 217 219 221 224 226 227 226 222 219 219
36 33 31 32 35 36 42 48 39 21 354 304 274 272 277 279 278 274 267 257 252 254 255 250 245 241 238 233 226 221 218 217 219 219 219 221 222 223 224 221 218 220
26 22 17 12 10 13 19 22 24 24 17 3 338 312 298 293 293 288 280 271 262 258 260 260 255 250 248 243 236 232 230 228 225 223 223 224 224 228 233 232 229 232
21 14 9 5 1 360 357 355 354 352 351 353 351 342 329 315 306 300 291 282 274 268 265 263 260 257 256 254 249 244 241 239 235 231 230 231 232 235 238 238 238 238
14 9 5 3 1 357 351 345 341 336 330 330 331 330 327 322 319 314 304 292 283 279 274 267 263 261 259 258 257 252 249 247 243 236 231 230 230 230 231 233 233 229
2 1 358 355 351 347 342 335 330 326 320 316 316 316 313 310 309 310 309 303 292 285 279 272 268 265 262 258 255 253 252 251 245 237 231 230 230 231 232 234 232 229
352 351 348 346 343 339 337 332 327 323 318 314 313 311 308 304 301 300 301 302 298 290 281 274 269 266 263 259 255 251 250 247 242 236 233 234 235 235 235 236 237 239